Showing default

ICEYE-X59, 66752

Orbit data source: Space-Track

ICEYE-X59, 66752 is a Greek payload satellite in SSO that was launched on Fri, 28 Nov 2025 UTC via an FALCON 9 launch vehicle from the Air Force Western Test Range (AFWTR). Payload-class satellites include a variety of spacecraft equipped with specific instruments for various scientific and technological missions. These include communications satellites like Starlink; space stations such as the ISS; scientific satellites like the Hubble; Earth observation satellites from companies like Planet Labs, Umbra, and HawkEye 360; GPS; miniature CubeSats for education and research; and military/defense satellites.

Loading next visibility...
Identifier
66752, 2025-276CQ
Orbit
SSO
Country
Flag of GRGR / GREC
Related business
Manufacturer
ICEYE
Mission
Operational Commercial Radar Imaging
Bus & Motor
ICEYE, Unknown motor
Mass
120 kg wet, 120 kg dry
Launch date (UTC)
2025-11-28 (6 months ago)
Launch vehicle
FALCON 9
Launch site
Air Force Western Test Range (AFWTR)
Object type
Payload
Rocket body
Debris
Shape & HBR
Box + 1 Pan, 2.4 m
Radar Cross Section
0.776 m²

Expand to show TLE details & history
Last TLE update: 7 hours ago

TLE from 7 hours ago
0 ICEYE-X59
1 66752U 25276CQ  26144.91667824 -.00149382  00000-0 -12260-1 0  9999
2 66752  97.4246 217.2293 0001939  88.3122  90.5114 15.00038519  5852
Epoch: 2026-05-24T22:00Z
TLE epoch observation values (Epoch: 2026-05-24T22:00:00.999Z)
Latitude
1.02974°
Longitude
-175.15335°
Altitude
569.725 km
Speed
7.576 km/s
True Right ascension
02h 29m 27s
True Declination
1° 01' 24"
Sunlit
Object was in daylight at epoch
Visualization orbit readout
Latitude
Unknown
Longitude
Unknown
Altitude
Unknown
Speed
Unknown
Apparent Right ascension
Unknown
Apparent Declination
Unknown
Sunlit
N/A
Visualization observer readout
Local Sidereal Time
14:11:48
Azimuth
Unknown
Elevation
Unknown
Doppler factor
Unknown
Orbital elements
Apogee altitude
565.117 km
Perigee altitude
562.425 km
Semi-major axis
6,941.908 km
Eccentricity
0.00019
Inclination
97.4246°
RAAN
217.2293°
Arg. of periapsis
88.3122°
True anomaly
90.53362°
Mean anomaly
90.5114°
Eccentric anomaly
90.52251°
Mean motion
3.75254 °/min
Orbital period
95.94 mins
BSTAR
-0.01226
Loading maneuver chart data...
Computing Atmospheric mass density...
Loading historical data...
Loading historical data...
Loading historical data...
Loading historical data...
Loading historical data...
Loading historical data...
Loading historical data...

Documentation

Showing up to 5 results
|